QPF
0.00 0.00 0.00 0.00 0.00 0.00 0.00 0.00 0.00 0.00 0.00 0.00 0.01 0.02 0.02 0.02 0.02 0.03 0.03 0.04 0.03 0.03 0.03 0.04 0.06 0.06 0.06 0.08 0.10 0.10 0.10 0.08 0.07 0.09 0.09 0.09 0.10 0.12 0.15 0.14 0.15 0.15 0.14 0.13
0.00 0.00 0.00 0.00 0.00 0.00 0.00 0.00 0.00 0.00 0.01 0.01 0.01 0.02 0.03 0.03 0.03 0.03 0.03 0.03 0.02 0.02 0.02 0.03 0.05 0.06 0.05 0.06 0.09 0.10 0.09 0.08 0.07 0.07 0.07 0.08 0.10 0.10 0.12 0.12 0.12 0.15 0.15 0.13
0.00 0.00 0.00 0.00 0.00 0.00 0.00 0.00 0.00 0.00 0.01 0.01 0.01 0.02 0.03 0.03 0.04 0.03 0.04 0.03 0.02 0.02 0.03 0.04 0.03 0.04 0.05 0.06 0.07 0.07 0.06 0.06 0.07 0.08 0.08 0.09 0.10 0.11 0.12 0.12 0.13 0.15 0.18 0.16
0.00 0.00 0.00 0.00 0.00 0.00 0.00 0.00 0.00 0.00 0.01 0.01 0.01 0.01 0.02 0.03 0.03 0.03 0.03 0.03 0.03 0.03 0.03 0.05 0.06 0.06 0.07 0.07 0.07 0.08 0.08 0.09 0.11 0.14 0.13 0.11 0.10 0.13 0.15 0.15 0.14 0.16 0.17 0.14
0.00 0.00 0.00 0.00 0.01 0.00 0.00 0.01 0.01 0.01 0.01 0.02 0.02 0.02 0.02 0.02 0.02 0.03 0.03 0.03 0.02 0.03 0.04 0.04 0.07 0.08 0.08 0.09 0.09 0.10 0.10 0.13 0.15 0.15 0.14 0.11 0.12 0.14 0.13 0.12 0.13 0.14 0.15 0.14
0.00 0.00 0.00 0.01 0.00 0.00 0.00 0.01 0.01 0.01 0.02 0.02 0.03 0.02 0.01 0.01 0.01 0.01 0.03 0.03 0.02 0.03 0.05 0.05 0.06 0.07 0.06 0.07 0.07 0.08 0.10 0.10 0.11 0.10 0.09 0.11 0.11 0.13 0.15 0.12 0.12 0.15 0.14 0.12
0.00 0.00 0.00 0.01 0.01 0.01 0.01 0.00 0.00 0.01 0.01 0.01 0.02 0.02 0.02 0.01 0.01 0.02 0.03 0.05 0.04 0.05 0.07 0.07 0.07 0.08 0.09 0.08 0.06 0.08 0.08 0.06 0.06 0.07 0.10 0.13 0.13 0.14 0.15 0.12 0.11 0.12 0.12 0.10
0.00 0.00 0.00 0.00 0.00 0.01 0.01 0.00 0.00 0.01 0.01 0.01 0.01 0.01 0.02 0.02 0.03 0.04 0.06 0.08 0.07 0.06 0.07 0.07 0.07 0.08 0.09 0.08 0.05 0.06 0.06 0.06 0.07 0.08 0.11 0.16 0.19 0.18 0.19 0.17 0.13 0.11 0.11 0.10
0.00 0.00 0.00 0.00 0.00 0.00 0.00 0.01 0.01 0.01 0.01 0.01 0.01 0.01 0.01 0.02 0.02 0.03 0.07 0.09 0.12 0.12 0.10 0.08 0.07 0.07 0.06 0.07 0.07 0.07 0.05 0.05 0.07 0.09 0.10 0.11 0.13 0.13 0.13 0.12 0.11 0.09 0.08 0.08
0.01 0.01 0.01 0.00 0.00 0.00 0.01 0.01 0.01 0.01 0.01 0.01 0.01 0.02 0.02 0.02 0.02 0.03 0.06 0.09 0.15 0.17 0.14 0.10 0.06 0.06 0.07 0.07 0.08 0.08 0.08 0.08 0.08 0.09 0.11 0.10 0.09 0.10 0.10 0.10 0.09 0.06 0.06 0.05
0.01 0.01 0.01 0.00 0.00 0.01 0.01 0.01 0.01 0.02 0.02 0.02 0.02 0.02 0.02 0.02 0.03 0.05 0.05 0.07 0.13 0.14 0.10 0.08 0.06 0.05 0.05 0.05 0.06 0.07 0.08 0.08 0.10 0.11 0.12 0.13 0.12 0.11 0.10 0.10 0.10 0.09 0.07 0.06
0.01 0.00 0.00 0.01 0.01 0.01 0.01 0.02 0.02 0.02 0.03 0.03 0.03 0.03 0.04 0.03 0.04 0.05 0.06 0.08 0.10 0.10 0.09 0.06 0.05 0.05 0.03 0.04 0.04 0.06 0.06 0.06 0.07 0.09 0.10 0.10 0.11 0.11 0.09 0.08 0.08 0.07 0.07 0.07
0.00 0.00 0.01 0.01 0.02 0.02 0.02 0.02 0.03 0.03 0.03 0.04 0.04 0.04 0.04 0.03 0.03 0.03 0.03 0.06 0.07 0.08 0.07 0.05 0.04 0.03 0.03 0.02 0.03 0.04 0.06 0.06 0.06 0.07 0.09 0.11 0.12 0.11 0.09 0.08 0.07 0.06 0.05 0.05
0.01 0.01 0.01 0.01 0.02 0.03 0.02 0.03 0.04 0.04 0.05 0.07 0.08 0.07 0.04 0.03 0.03 0.04 0.03 0.04 0.05 0.07 0.06 0.04 0.04 0.03 0.03 0.04 0.04 0.03 0.04 0.05 0.05 0.05 0.06 0.08 0.09 0.09 0.08 0.07 0.07 0.06 0.05 0.04
0.01 0.01 0.01 0.01 0.02 0.03 0.04 0.05 0.05 0.06 0.05 0.05 0.06 0.05 0.04 0.03 0.03 0.04 0.04 0.04 0.05 0.06 0.05 0.04 0.05 0.05 0.03 0.04 0.04 0.04 0.04 0.03 0.03 0.03 0.03 0.04 0.04 0.04 0.04 0.04 0.04 0.03 0.03 0.02
0.01 0.01 0.01 0.02 0.02 0.03 0.05 0.05 0.05 0.08 0.05 0.03 0.04 0.05 0.05 0.05 0.04 0.05 0.06 0.06 0.07 0.08 0.06 0.04 0.03 0.03 0.03 0.02 0.01 0.01 0.01 0.02 0.02 0.02 0.03 0.03 0.03 0.03 0.02 0.02 0.01 0.01 0.00 0.00
0.01 0.02 0.02 0.02 0.02 0.03 0.05 0.06 0.05 0.05 0.04 0.03 0.04 0.06 0.07 0.07 0.06 0.05 0.05 0.07 0.07 0.05 0.03 0.02 0.02 0.02 0.02 0.01 0.01 0.00 0.00 0.00 0.01 0.01 0.02 0.02 0.02 0.02 0.01 0.01 0.01 0.00 0.00 0.00
0.00 0.01 0.01 0.01 0.02 0.03 0.04 0.04 0.04 0.04 0.04 0.03 0.03 0.04 0.04 0.04 0.04 0.04 0.05 0.05 0.04 0.02 0.02 0.01 0.01 0.01 0.01 0.01 0.01 0.00 0.00 0.00 0.00 0.00 0.00 0.00 0.00 0.00 0.00 0.00 0.00 0.00 0.00 0.00
0.01 0.01 0.01 0.02 0.03 0.03 0.04 0.03 0.04 0.04 0.02 0.02 0.02 0.02 0.02 0.02 0.02 0.03 0.03 0.03 0.02 0.02 0.01 0.01 0.01 0.01 0.01 0.01 0.01 0.01 0.00 0.00 0.00 0.00 0.00 0.00 0.00 0.00 0.00 0.00 0.00 0.00 0.00 0.00
0.01 0.01 0.01 0.02 0.03 0.03 0.04 0.04 0.04 0.03 0.01 0.01 0.01 0.01 0.01 0.01 0.01 0.02 0.02 0.03 0.02 0.02 0.01 0.00 0.00 0.00 0.00 0.00 0.00 0.00 0.00 0.00 0.00 0.00 0.00 0.00 0.00 0.00 0.00 0.00 0.00 0.00 0.00 0.00
0.02 0.01 0.01 0.02 0.02 0.03 0.03 0.03 0.02 0.02 0.02 0.01 0.01 0.01 0.01 0.01 0.01 0.01 0.01 0.01 0.01 0.01 0.00 0.00 0.00 0.00 0.00 0.00 0.00 0.00 0.00 0.00 0.00 0.00 0.00 0.00 0.00 0.00 0.00 0.00 0.00 0.00 0.00 0.00
0.02 0.02 0.02 0.01 0.02 0.03 0.04 0.03 0.02 0.02 0.02 0.01 0.01 0.00 0.00 0.00 0.00 0.00 0.00 0.00 0.00 0.00 0.00 0.00 0.00 0.00 0.00 0.00 0.00 0.00 0.00 0.00 0.00 0.00 0.00 0.00 0.00 0.00 0.01 0.00 0.00 0.00 0.00 0.00
0.03 0.02 0.02 0.02 0.03 0.03 0.03 0.03 0.02 0.01 0.01 0.01 0.01 0.00 0.00 0.00 0.00 0.00 0.00 0.00 0.00 0.00 0.00 0.00 0.00 0.00 0.00 0.00 0.00 0.00 0.00 0.00 0.00 0.00 0.00 0.00 0.00 0.00 0.00 0.00 0.00 0.00 0.00 0.00
0.03 0.03 0.03 0.03 0.03 0.03 0.03 0.02 0.01 0.01 0.00 0.00 0.00 0.00 0.00 0.00 0.00 0.00 0.00 0.00 0.00 0.00 0.00 0.00 0.00 0.00 0.00 0.00 0.00 0.00 0.00 0.00 0.00 0.00 0.00 0.00 0.00 0.00 0.00 0.00 0.00 0.00 0.00 0.00
0.04 0.04 0.04 0.04 0.03 0.03 0.02 0.01 0.01 0.00 0.00 0.00 0.00 0.00 0.00 0.00 0.00 0.00 0.00 0.00 0.00 0.00 0.00 0.00 0.00 0.00 0.00 0.00 0.00 0.00 0.00 0.00 0.00 0.00 0.00 0.00 0.00 0.00 0.00 0.00 0.00 0.00 0.00 0.00
0.04 0.04 0.03 0.03 0.02 0.02 0.01 0.01 0.01 0.00 0.00 0.00 0.00 0.00 0.00 0.00 0.00 0.00 0.00 0.00 0.00 0.00 0.00 0.00 0.00 0.00 0.00 0.00 0.00 0.00 0.00 0.00 0.00 0.00 0.00 0.00 0.00 0.00 0.00 0.00 0.00 0.00 0.00 0.00
0.04 0.03 0.02 0.02 0.01 0.01 0.01 0.01 0.01 0.01 0.00 0.00 0.00 0.00 0.00 0.00 0.00 0.00 0.00 0.00 0.00 0.00 0.00 0.00 0.00 0.00 0.00 0.00 0.00 0.00 0.00 0.00 0.00 0.00 0.00 0.00 0.00 0.00 0.00 0.00 0.00 0.00 0.00 0.00
MSLP
1008.29 1009.04 1009.77 1010.46 1011.07 1011.54 1011.84 1011.94 1011.82 1011.50 1011.01 1010.41 1009.77 1009.15 1008.63 1008.25 1008.04 1007.97 1008.04 1008.20 1008.40 1008.60 1008.79 1008.94 1009.08 1009.22 1009.40 1009.64 1009.96 1010.36 1010.84 1011.36 1011.90 1012.43 1012.92 1013.35 1013.72 1014.04 1014.33 1014.60 1014.88 1015.17 1015.48 1015.79
1008.38 1009.10 1009.77 1010.36 1010.83 1011.18 1011.37 1011.40 1011.27 1010.99 1010.59 1010.12 1009.62 1009.14 1008.73 1008.41 1008.20 1008.11 1008.11 1008.19 1008.31 1008.45 1008.61 1008.78 1008.97 1009.20 1009.47 1009.81 1010.22 1010.69 1011.21 1011.74 1012.26 1012.74 1013.17 1013.54 1013.85 1014.11 1014.34 1014.56 1014.79 1015.04 1015.29 1015.56
1008.63 1009.31 1009.90 1010.38 1010.74 1010.97 1011.08 1011.05 1010.91 1010.67 1010.35 1009.98 1009.59 1009.21 1008.88 1008.61 1008.40 1008.28 1008.22 1008.23 1008.28 1008.38 1008.52 1008.71 1008.94 1009.24 1009.59 1010.00 1010.47 1010.98 1011.50 1012.02 1012.51 1012.95 1013.32 1013.64 1013.89 1014.11 1014.31 1014.50 1014.70 1014.92 1015.15 1015.39
1009.04 1009.66 1010.16 1010.54 1010.80 1010.94 1010.97 1010.90 1010.75 1010.54 1010.27 1009.97 1009.66 1009.36 1009.07 1008.83 1008.63 1008.48 1008.38 1008.34 1008.35 1008.42 1008.54 1008.73 1008.99 1009.31 1009.69 1010.13 1010.61 1011.12 1011.62 1012.10 1012.54 1012.93 1013.27 1013.55 1013.79 1014.00 1014.20 1014.39 1014.60 1014.82 1015.05 1015.30
1009.59 1010.12 1010.53 1010.82 1010.99 1011.05 1011.03 1010.92 1010.76 1010.55 1010.32 1010.06 1009.80 1009.54 1009.30 1009.07 1008.88 1008.71 1008.60 1008.52 1008.51 1008.56 1008.66 1008.84 1009.08 1009.39 1009.75 1010.16 1010.59 1011.04 1011.48 1011.90 1012.29 1012.64 1012.96 1013.24 1013.50 1013.75 1013.99 1014.23 1014.48 1014.74 1015.01 1015.28
1010.19 1010.63 1010.95 1011.16 1011.26 1011.26 1011.19 1011.06 1010.88 1010.68 1010.45 1010.22 1009.99 1009.75 1009.53 1009.33 1009.14 1008.99 1008.87 1008.80 1008.77 1008.80 1008.88 1009.02 1009.22 1009.46 1009.74 1010.06 1010.40 1010.74 1011.09 1011.44 1011.77 1012.11 1012.43 1012.75 1013.07 1013.39 1013.72 1014.05 1014.38 1014.71 1015.03 1015.35
1010.77 1011.12 1011.36 1011.50 1011.54 1011.51 1011.41 1011.26 1011.07 1010.86 1010.64 1010.42 1010.19 1009.98 1009.78 1009.60 1009.44 1009.31 1009.22 1009.16 1009.14 1009.15 1009.20 1009.29 1009.41 1009.55 1009.71 1009.89 1010.09 1010.31 1010.55 1010.81 1011.10 1011.43 1011.78 1012.17 1012.59 1013.02 1013.46 1013.91 1014.34 1014.76 1015.15 1015.52
1011.26 1011.52 1011.70 1011.79 1011.80 1011.74 1011.63 1011.47 1011.28 1011.06 1010.84 1010.62 1010.40 1010.20 1010.03 1009.88 1009.76 1009.68 1009.63 1009.60 1009.60 1009.61 1009.63 1009.66 1009.68 1009.70 1009.71 1009.74 1009.79 1009.86 1009.99 1010.18 1010.43 1010.77 1011.18 1011.65 1012.19 1012.75 1013.32 1013.89 1014.43 1014.93 1015.39 1015.81
1011.61 1011.81 1011.94 1012.00 1011.99 1011.93 1011.81 1011.65 1011.46 1011.24 1011.02 1010.80 1010.60 1010.42 1010.28 1010.18 1010.12 1010.09 1010.10 1010.13 1010.16 1010.18 1010.18 1010.14 1010.07 1009.97 1009.85 1009.72 1009.62 1009.57 1009.59 1009.72 1009.96 1010.32 1010.79 1011.36 1012.01 1012.70 1013.40 1014.08 1014.72 1015.29 1015.80 1016.24
1011.82 1011.98 1012.08 1012.12 1012.11 1012.05 1011.94 1011.78 1011.59 1011.38 1011.16 1010.95 1010.76 1010.61 1010.51 1010.47 1010.48 1010.53 1010.62 1010.71 1010.79 1010.84 1010.83 1010.76 1010.62 1010.42 1010.18 1009.93 1009.71 1009.56 1009.51 1009.60 1009.83 1010.22 1010.76 1011.42 1012.17 1012.97 1013.77 1014.53 1015.23 1015.85 1016.38 1016.83
1011.92 1012.05 1012.13 1012.17 1012.16 1012.10 1012.00 1011.84 1011.66 1011.45 1011.24 1011.04 1010.88 1010.77 1010.73 1010.75 1010.84 1010.99 1011.16 1011.34 1011.48 1011.58 1011.59 1011.51 1011.33 1011.07 1010.76 1010.44 1010.14 1009.93 1009.84 1009.91 1010.15 1010.57 1011.16 1011.90 1012.72 1013.59 1014.45 1015.26 1015.99 1016.62 1017.14 1017.58
1011.97 1012.08 1012.15 1012.18 1012.17 1012.11 1012.00 1011.85 1011.67 1011.46 1011.26 1011.08 1010.96 1010.89 1010.91 1011.01 1011.19 1011.43 1011.70 1011.97 1012.20 1012.35 1012.41 1012.35 1012.18 1011.91 1011.58 1011.23 1010.91 1010.68 1010.58 1010.65 1010.92 1011.37 1012.00 1012.77 1013.63 1014.53 1015.40 1016.22 1016.95 1017.56 1018.06 1018.46
1012.04 1012.13 1012.19 1012.20 1012.17 1012.10 1011.98 1011.82 1011.64 1011.44 1011.25 1011.10 1011.01 1011.00 1011.09 1011.27 1011.53 1011.86 1012.23 1012.59 1012.90 1013.13 1013.25 1013.24 1013.11 1012.87 1012.56 1012.23 1011.93 1011.72 1011.65 1011.75 1012.04 1012.51 1013.16 1013.94 1014.80 1015.68 1016.54 1017.33 1018.02 1018.60 1019.05 1019.42
1012.18 1012.26 1012.29 1012.28 1012.22 1012.12 1011.99 1011.81 1011.62 1011.43 1011.26 1011.14 1011.09 1011.14 1011.29 1011.54 1011.89 1012.30 1012.75 1013.19 1013.57 1013.88 1014.06 1014.12 1014.05 1013.87 1013.62 1013.34 1013.10 1012.94 1012.91 1013.04 1013.36 1013.84 1014.48 1015.25 1016.08 1016.92 1017.74 1018.48 1019.12 1019.65 1020.07 1020.40
1012.43 1012.48 1012.48 1012.44 1012.35 1012.22 1012.06 1011.88 1011.68 1011.50 1011.36 1011.27 1011.27 1011.37 1011.58 1011.90 1012.30 1012.78 1013.28 1013.78 1014.22 1014.58 1014.82 1014.94 1014.93 1014.82 1014.65 1014.45 1014.28 1014.18 1014.21 1014.38 1014.72 1015.20 1015.83 1016.56 1017.34 1018.13 1018.89 1019.57 1020.16 1020.65 1021.04 1021.35
1012.77 1012.80 1012.78 1012.70 1012.59 1012.44 1012.26 1012.07 1011.88 1011.72 1011.61 1011.56 1011.61 1011.76 1012.02 1012.38 1012.83 1013.34 1013.87 1014.39 1014.85 1015.24 1015.51 1015.67 1015.72 1015.67 1015.57 1015.45 1015.36 1015.33 1015.42 1015.63 1015.98 1016.47 1017.08 1017.76 1018.48 1019.21 1019.90 1020.53 1021.08 1021.53 1021.91 1022.22
1013.17 1013.20 1013.16 1013.07 1012.94 1012.78 1012.60 1012.43 1012.27 1012.14 1012.07 1012.08 1012.17 1012.37 1012.67 1013.06 1013.52 1014.02 1014.54 1015.05 1015.50 1015.87 1016.14 1016.32 1016.40 1016.40 1016.36 1016.30 1016.28 1016.32 1016.46 1016.72 1017.09 1017.57 1018.15 1018.79 1019.46 1020.13 1020.76 1021.34 1021.85 1022.29 1022.66 1022.98
1013.59 1013.63 1013.60 1013.52 1013.41 1013.26 1013.11 1012.97 1012.85 1012.78 1012.76 1012.83 1012.97 1013.21 1013.53 1013.92 1014.37 1014.85 1015.33 1015.78 1016.18 1016.50 1016.75 1016.90 1016.99 1017.01 1017.01 1017.01 1017.05 1017.15 1017.34 1017.63 1018.02 1018.50 1019.05 1019.66 1020.28 1020.90 1021.48 1022.03 1022.51 1022.94 1023.32 1023.66
1013.98 1014.05 1014.06 1014.02 1013.95 1013.85 1013.76 1013.67 1013.62 1013.61 1013.66 1013.78 1013.98 1014.25 1014.58 1014.96 1015.37 1015.80 1016.21 1016.58 1016.90 1017.16 1017.34 1017.46 1017.52 1017.56 1017.58 1017.62 1017.71 1017.86 1018.09 1018.41 1018.82 1019.30 1019.84 1020.41 1021.00 1021.57 1022.12 1022.63 1023.10 1023.52 1023.91 1024.27
1014.29 1014.43 1014.50 1014.53 1014.52 1014.50 1014.47 1014.46 1014.49 1014.56 1014.68 1014.86 1015.10 1015.39 1015.72 1016.08 1016.44 1016.80 1017.13 1017.42 1017.65 1017.82 1017.94 1018.01 1018.06 1018.08 1018.12 1018.20 1018.32 1018.52 1018.79 1019.14 1019.56 1020.05 1020.57 1021.12 1021.68 1022.22 1022.74 1023.22 1023.67 1024.09 1024.48 1024.85
1014.52 1014.74 1014.89 1015.00 1015.07 1015.13 1015.18 1015.26 1015.36 1015.51 1015.69 1015.93 1016.20 1016.51 1016.83 1017.16 1017.48 1017.78 1018.03 1018.23 1018.39 1018.49 1018.55 1018.58 1018.61 1018.64 1018.69 1018.80 1018.96 1019.20 1019.50 1019.88 1020.32 1020.80 1021.32 1021.85 1022.38 1022.89 1023.38 1023.84 1024.26 1024.67 1025.05 1025.41
1014.68 1014.97 1015.21 1015.40 1015.55 1015.69 1015.82 1015.97 1016.15 1016.36 1016.60 1016.87 1017.17 1017.49 1017.81 1018.11 1018.39 1018.63 1018.83 1018.97 1019.07 1019.13 1019.16 1019.17 1019.19 1019.23 1019.32 1019.45 1019.66 1019.93 1020.27 1020.67 1021.12 1021.60 1022.11 1022.62 1023.12 1023.60 1024.05 1024.48 1024.88 1025.26 1025.62 1025.97
1014.79 1015.15 1015.45 1015.71 1015.93 1016.14 1016.34 1016.55 1016.77 1017.03 1017.31 1017.61 1017.93 1018.25 1018.56 1018.85 1019.10 1019.31 1019.48 1019.59 1019.67 1019.71 1019.74 1019.76 1019.80 1019.88 1020.00 1020.18 1020.42 1020.73 1021.09 1021.51 1021.96 1022.44 1022.92 1023.41 1023.87 1024.32 1024.74 1025.13 1025.50 1025.85 1026.18 1026.50
1014.88 1015.30 1015.65 1015.96 1016.22 1016.47 1016.71 1016.96 1017.22 1017.50 1017.80 1018.11 1018.44 1018.76 1019.07 1019.35 1019.59 1019.80 1019.96 1020.08 1020.16 1020.23 1020.28 1020.35 1020.43 1020.55 1020.72 1020.95 1021.23 1021.56 1021.94 1022.36 1022.80 1023.26 1023.72 1024.17 1024.60 1025.00 1025.38 1025.74 1026.07 1026.39 1026.68 1026.97
1015.00 1015.44 1015.82 1016.16 1016.45 1016.72 1016.98 1017.24 1017.52 1017.80 1018.11 1018.42 1018.75 1019.07 1019.37 1019.66 1019.91 1020.13 1020.31 1020.46 1020.59 1020.69 1020.80 1020.92 1021.06 1021.24 1021.46 1021.72 1022.03 1022.38 1022.76 1023.17 1023.59 1024.02 1024.43 1024.84 1025.22 1025.58 1025.92 1026.24 1026.53 1026.81 1027.08 1027.32
1015.17 1015.62 1016.01 1016.35 1016.66 1016.93 1017.20 1017.47 1017.74 1018.02 1018.32 1018.64 1018.96 1019.27 1019.58 1019.88 1020.14 1020.39 1020.60 1020.80 1020.97 1021.14 1021.31 1021.49 1021.69 1021.91 1022.17 1022.46 1022.79 1023.14 1023.51 1023.89 1024.27 1024.64 1025.01 1025.36 1025.69 1026.01 1026.30 1026.58 1026.84 1027.09 1027.32 1027.54
1015.41 1015.85 1016.24 1016.59 1016.90 1017.18 1017.45 1017.72 1017.99 1018.27 1018.56 1018.87 1019.19 1019.50 1019.81 1020.12 1020.40 1020.67 1020.92 1021.16 1021.38 1021.60 1021.82 1022.05 1022.30 1022.56 1022.84 1023.14 1023.46 1023.79 1024.13 1024.46 1024.80 1025.12 1025.42 1025.72 1025.99 1026.26 1026.51 1026.75 1026.98 1027.20 1027.41 1027.60
Thickness
5725 5734 5735 5734 5732 5732 5729 5721 5714 5721 5726 5735 5739 5741 5745 5748 5748 5747 5745 5745 5743 5742 5741 5739 5738 5736 5734 5733 5731 5730 5727 5725 5722 5721 5720 5718 5716 5715 5714 5713 5713 5712 5711 5710
5717 5726 5729 5724 5726 5728 5727 5726 5724 5724 5724 5734 5737 5739 5739 5741 5741 5740 5740 5739 5739 5737 5737 5735 5733 5732 5730 5728 5727 5726 5723 5721 5719 5717 5715 5713 5712 5711 5709 5708 5708 5708 5707 5706
5698 5713 5717 5703 5713 5718 5719 5720 5722 5717 5722 5727 5728 5731 5732 5733 5734 5734 5734 5733 5732 5731 5731 5730 5729 5728 5726 5724 5723 5721 5719 5717 5715 5713 5710 5708 5707 5705 5704 5703 5702 5701 5700 5700
5687 5699 5687 5698 5717 5718 5713 5712 5717 5717 5719 5721 5722 5723 5725 5727 5727 5727 5727 5726 5726 5725 5725 5725 5724 5723 5721 5720 5718 5716 5713 5711 5710 5708 5705 5703 5701 5699 5698 5697 5695 5694 5692 5691
5674 5675 5681 5697 5708 5709 5705 5702 5710 5710 5711 5712 5714 5716 5715 5719 5720 5719 5719 5719 5720 5720 5719 5718 5718 5718 5716 5714 5712 5710 5708 5706 5705 5702 5700 5697 5694 5692 5690 5689 5687 5685 5683 5682
5669 5669 5667 5688 5702 5708 5703 5691 5703 5704 5704 5704 5706 5699 5701 5708 5710 5710 5711 5712 5712 5712 5711 5711 5711 5710 5709 5707 5706 5703 5702 5701 5699 5697 5694 5692 5688 5685 5683 5681 5677 5675 5673 5672
5664 5666 5672 5686 5694 5698 5682 5687 5696 5697 5697 5697 5695 5695 5697 5699 5699 5700 5701 5703 5704 5703 5702 5701 5703 5702 5700 5699 5697 5697 5696 5695 5693 5690 5687 5685 5681 5678 5675 5672 5668 5665 5662 5660
5654 5657 5662 5681 5685 5682 5682 5687 5689 5690 5690 5689 5690 5690 5690 5689 5689 5690 5691 5692 5693 5692 5691 5692 5693 5693 5691 5689 5689 5689 5688 5686 5684 5682 5680 5677 5673 5669 5666 5663 5659 5655 5652 5649
5655 5657 5664 5669 5673 5675 5677 5678 5680 5682 5682 5682 5681 5680 5680 5679 5679 5680 5681 5681 5682 5682 5681 5682 5683 5683 5681 5680 5680 5680 5678 5676 5674 5672 5669 5667 5664 5660 5656 5653 5649 5645 5641 5638
5650 5655 5659 5661 5664 5667 5670 5671 5673 5674 5675 5675 5673 5672 5671 5670 5669 5669 5669 5670 5671 5672 5671 5669 5670 5671 5670 5670 5670 5670 5667 5664 5662 5660 5657 5654 5651 5648 5645 5642 5638 5634 5630 5626
5643 5648 5652 5655 5656 5657 5661 5664 5666 5666 5667 5666 5665 5663 5662 5660 5658 5658 5657 5658 5659 5659 5659 5657 5658 5658 5659 5659 5659 5657 5654 5651 5649 5646 5643 5639 5635 5631 5629 5627 5626 5623 5618 5615
5640 5645 5646 5646 5648 5650 5652 5654 5656 5657 5657 5656 5655 5653 5651 5649 5647 5646 5646 5646 5647 5647 5647 5646 5646 5646 5646 5647 5648 5646 5642 5638 5636 5633 5630 5627 5623 5616 5612 5611 5610 5608 5606 5603
5639 5640 5639 5640 5640 5642 5643 5645 5646 5647 5647 5645 5644 5644 5641 5638 5636 5636 5635 5635 5635 5634 5634 5634 5633 5632 5633 5635 5635 5634 5630 5626 5624 5621 5618 5615 5612 5608 5602 5596 5594 5592 5590 5588
5632 5633 5631 5631 5632 5633 5634 5635 5636 5636 5635 5634 5633 5632 5630 5628 5626 5624 5623 5623 5624 5624 5622 5622 5622 5620 5620 5622 5622 5620 5617 5615 5612 5608 5605 5602 5599 5596 5592 5589 5583 5577 5573 5572
5624 5627 5626 5624 5624 5625 5626 5627 5626 5624 5623 5621 5621 5621 5619 5617 5614 5612 5612 5612 5613 5612 5611 5611 5610 5608 5608 5609 5609 5607 5605 5602 5599 5596 5593 5590 5586 5583 5579 5574 5570 5565 5561 5558
5617 5618 5618 5617 5617 5617 5617 5617 5616 5613 5612 5611 5611 5610 5608 5607 5604 5602 5601 5602 5601 5599 5598 5598 5597 5597 5598 5598 5597 5596 5594 5592 5588 5585 5581 5577 5574 5570 5566 5562 5557 5553 5549 5545
5613 5610 5610 5609 5609 5608 5608 5607 5607 5605 5603 5602 5600 5599 5598 5596 5593 5591 5589 5589 5588 5586 5586 5587 5587 5587 5588 5588 5587 5584 5582 5580 5577 5573 5569 5565 5562 5558 5554 5550 5545 5540 5535 5532
5611 5610 5609 5607 5605 5602 5600 5598 5597 5596 5595 5594 5592 5591 5589 5586 5583 5581 5579 5579 5578 5577 5576 5576 5578 5578 5578 5578 5576 5574 5571 5568 5565 5562 5557 5553 5549 5546 5542 5537 5533 5528 5523 5519
5603 5602 5601 5599 5597 5595 5593 5591 5590 5589 5588 5587 5585 5582 5580 5577 5575 5573 5572 5571 5570 5567 5566 5567 5569 5569 5568 5567 5566 5563 5560 5557 5553 5549 5545 5541 5537 5533 5529 5525 5520 5515 5511 5506
5597 5595 5594 5592 5590 5589 5587 5586 5584 5583 5581 5580 5577 5574 5571 5569 5567 5565 5564 5561 5559 5559 5560 5561 5561 5560 5559 5557 5556 5553 5550 5546 5542 5538 5534 5530 5526 5521 5517 5513 5508 5503 5498 5493
5592 5591 5589 5587 5585 5584 5583 5582 5580 5577 5575 5573 5571 5568 5565 5562 5561 5560 5558 5555 5552 5553 5553 5553 5552 5551 5549 5547 5545 5542 5539 5535 5531 5527 5523 5518 5514 5509 5505 5500 5495 5491 5486 5481
5588 5587 5585 5583 5582 5579 5578 5576 5574 5572 5569 5567 5565 5562 5559 5556 5553 5551 5549 5548 5546 5547 5546 5545 5544 5542 5540 5538 5535 5531 5528 5524 5519 5515 5511 5507 5502 5498 5493 5488 5484 5479 5475 5471
5584 5582 5581 5579 5577 5575 5572 5571 5569 5567 5565 5562 5560 5557 5554 5551 5549 5547 5543 5541 5541 5540 5539 5537 5535 5533 5531 5528 5524 5521 5517 5513 5509 5505 5500 5496 5492 5487 5482 5478 5473 5468 5464 5460
5580 5578 5576 5574 5573 5570 5566 5564 5563 5561 5559 5557 5554 5552 5549 5545 5541 5539 5538 5536 5535 5533 5530 5528 5526 5524 5521 5518 5514 5510 5506 5502 5498 5494 5490 5485 5480 5476 5471 5467 5462 5458 5454 5450
5576 5574 5573 5570 5568 5565 5561 5559 5557 5554 5553 5550 5547 5545 5543 5541 5538 5534 5531 5529 5527 5525 5521 5519 5517 5514 5511 5507 5503 5499 5495 5491 5487 5483 5479 5475 5470 5466 5462 5457 5453 5449 5445 5442
5571 5569 5568 5566 5564 5560 5558 5555 5552 5549 5547 5544 5540 5538 5536 5533 5531 5527 5524 5522 5519 5516 5512 5509 5506 5503 5500 5496 5492 5489 5485 5481 5477 5473 5469 5465 5461 5457 5453 5449 5445 5441 5438 5434
5564 5563 5561 5558 5556 5555 5553 5551 5548 5545 5543 5540 5535 5532 5529 5526 5523 5520 5517 5513 5509 5506 5503 5499 5496 5493 5489 5486 5482 5478 5475 5471 5468 5464 5461 5457 5453 5450 5446 5442 5439 5435 5432 5428